Weather History for Lacon, IL

Change the Weather History Date:

Tuesday, October 9, 2012

  Actual Average (KPIA) Record (KPIA)
Temperature  
Mean Temperature 58 °F 56 °F  
Max Temperature 69 °F 67 °F 86 °F (1938)
Min Temperature 46 °F 45 °F 26 °F (1915)
Degree Days  
Heating Degree Days 8 9  
Month to date heating degree days 74  
Since 1 July heating degree days 164  
Cooling Degree Days 0 1  
Month to date cooling degree days 9  
Year to date cooling degree days 1033  
Growing Degree Days 8 (Base 50)    
Moisture  
Dew Point 42 °F    
Average Humidity 63    
Maximum Humidity 94    
Minimum Humidity 35    
Precipitation  
Precipitation 0.17 in 0.09 in 1.71 in (1936)
Month to date precipitation 0.79  
Year to date precipitation 28.89  
Sea Level Pressure  
Sea Level Pressure 29.93 in    
Wind  
Wind Speed 9 mph (South)    
Max Wind Speed 23 mph    
Max Gust Speed 31 mph    
Visibility 10 miles    
Events Rain    
T = Trace of Precipitation, MM = Missing Value Source: NWS Daily Summary

Daily Weather History Graph

Daily Weather History Graph

Search for Another Location

Airport:

Trip Planner

Search our weather history database for the weather conditions in past years. The results will help you decide how hot, cold, wet, or windy it might be!

Date:

Astronomy

Oct. 09, 2012 Rise Set
Actual Time 7:03 AM CDT 6:25 PM CDT
Civil Twilight 6:35 AM CDT 6:53 PM CDT
Nautical Twilight 6:03 AM CDT 7:24 PM CDT
Astronomical Twilight 5:31 AM CDT 7:56 PM CDT
Moon 12:36 AM CDT (10/9) 2:55 PM CDT (10/9)
Length of Visible Light 12h 17m
Length of Day
11h 22m
Last Quarter, 36% of the Moon is Illuminated
Oct 9
Last Quarter
Oct 15
New
Oct 21
First Quarter
Oct 29
Full
Nov 6
Last Quarter

Hourly Weather History & Observations

Time (CDT) Temp. Windchill Dew Point Humidity Pressure Visibility Wind Dir Wind Speed Gust Speed Precip Events Conditions
12:15 AM 50.0 °F - 36.1 °F 59% 30.01 in 10.0 mi SE 5.8 mph - N/A   Clear
12:35 AM 48.4 °F - 36.7 °F 64% 30.00 in 10.0 mi SE 6.9 mph - N/A   Clear
12:55 AM 47.7 °F - 36.7 °F 66% 30.00 in 10.0 mi SSE 8.1 mph - N/A   Clear
1:15 AM 48.4 °F - 36.5 °F 64% 29.99 in 10.0 mi SSE 6.9 mph - N/A   Clear
1:35 AM 49.5 °F - 36.5 °F 61% 29.99 in 10.0 mi South 6.9 mph - N/A   Clear
1:55 AM 50.0 °F - 36.5 °F 60% 29.99 in 10.0 mi South 6.9 mph - N/A   Scattered Clouds
2:15 AM 49.8 °F - 36.5 °F 60% 29.99 in 10.0 mi South 6.9 mph - N/A   Clear
2:35 AM 48.7 °F - 36.7 °F 63% 29.99 in 10.0 mi SSE 6.9 mph - N/A   Scattered Clouds
3:15 AM 47.5 °F - 37.4 °F 68% 29.98 in 10.0 mi SSE 4.6 mph - N/A   Clear
3:35 AM 47.7 °F - 37.6 °F 68% 29.98 in 10.0 mi SSE 4.6 mph - N/A   Clear
3:55 AM 48.6 °F - 38.3 °F 68% 29.97 in 10.0 mi SSE 6.9 mph - N/A   Clear
4:15 AM 49.1 °F - 38.5 °F 67% 29.97 in 10.0 mi South 6.9 mph - N/A   Clear
4:35 AM 49.3 °F - 38.8 °F 67% 29.98 in 10.0 mi South 5.8 mph - N/A   Clear
4:55 AM 49.3 °F - 39.2 °F 68% 29.98 in 10.0 mi South 8.1 mph - N/A   Clear
5:15 AM 49.1 °F - 39.4 °F 69% 29.98 in 10.0 mi South 9.2 mph - N/A   Clear
5:35 AM 48.9 °F - 39.4 °F 70% 29.98 in 10.0 mi South 8.1 mph - N/A   Clear
5:55 AM 48.2 °F - 39.2 °F 71% 29.98 in 10.0 mi South 6.9 mph - N/A   Clear
6:15 AM 48.2 °F - 39.7 °F 73% 29.97 in 10.0 mi South 8.1 mph - N/A   Clear
6:35 AM 46.9 °F - 39.7 °F 76% 29.97 in 10.0 mi SE 5.8 mph - N/A   Clear
6:55 AM 46.4 °F 43.5 °F 39.7 °F 78% 29.97 in 10.0 mi SE 5.8 mph - N/A   Clear
7:15 AM 47.3 °F - 40.5 °F 77% 29.97 in 10.0 mi South 5.8 mph - N/A   Clear
7:35 AM 48.6 °F - 40.6 °F 74% 29.97 in 10.0 mi South 9.2 mph - N/A   Clear
7:55 AM 49.3 °F - 40.6 °F 72% 29.97 in 10.0 mi South 8.1 mph - N/A   Clear
8:15 AM 50.2 °F - 41.2 °F 71% 29.96 in 10.0 mi South 8.1 mph - N/A   Clear
8:35 AM 51.3 °F - 41.2 °F 68% 29.96 in 10.0 mi South 8.1 mph 17.3 mph N/A   Clear
8:55 AM 52.7 °F - 41.4 °F 65% 29.96 in 10.0 mi South 10.4 mph 19.6 mph N/A   Clear
9:15 AM 54.0 °F - 41.9 °F 64% 29.96 in 10.0 mi South 12.7 mph 17.3 mph N/A   Clear
9:35 AM 54.9 °F - 42.1 °F 62% 29.95 in 10.0 mi South 10.4 mph 20.7 mph N/A   Clear
9:55 AM 56.5 °F - 42.6 °F 60% 29.95 in 10.0 mi South 16.1 mph 21.9 mph N/A   Clear
10:15 AM 57.2 °F - 42.4 °F 58% 29.95 in 10.0 mi South 17.3 mph 20.7 mph N/A   Clear
10:35 AM 57.2 °F - 43.0 °F 59% 29.95 in 10.0 mi South 16.1 mph 20.7 mph N/A   Clear
10:55 AM 57.4 °F - 43.3 °F 59% 29.94 in 10.0 mi South 11.5 mph 18.4 mph N/A   Clear
11:15 AM 58.8 °F - 43.5 °F 57% 29.94 in 10.0 mi South 15.0 mph 19.6 mph N/A   Clear
11:35 AM 61.5 °F - 43.5 °F 52% 29.93 in 10.0 mi SSW 16.1 mph 21.9 mph N/A   Clear
11:55 AM 63.5 °F - 43.3 °F 48% 29.91 in 10.0 mi South 16.1 mph 20.7 mph N/A   Clear
12:15 PM 64.6 °F - 43.3 °F 46% 29.91 in 10.0 mi SSW 16.1 mph 21.9 mph N/A   Clear
12:35 PM 65.8 °F - 44.2 °F 46% 29.90 in 10.0 mi South 15.0 mph 20.7 mph N/A   Clear
12:55 PM 65.8 °F - 43.2 °F 44% 29.89 in 10.0 mi South 18.4 mph 23.0 mph N/A   Clear
1:15 PM 66.4 °F - 43.0 °F 43% 29.88 in 10.0 mi South 15.0 mph 23.0 mph N/A   Clear
1:35 PM 65.3 °F - 42.1 °F 43% 29.87 in 10.0 mi South 16.1 mph 23.0 mph N/A   Clear
1:55 PM 67.3 °F - 42.3 °F 40% 29.86 in 10.0 mi South 17.3 mph 23.0 mph N/A   Clear
2:15 PM 69.1 °F - 41.2 °F 36% 29.85 in 10.0 mi South 16.1 mph 20.7 mph N/A   Clear
2:35 PM 69.4 °F - 40.6 °F 35% 29.84 in 10.0 mi South 19.6 mph 24.2 mph N/A   Clear
2:55 PM 68.9 °F - 39.9 °F 35% 29.84 in 10.0 mi South 17.3 mph 27.6 mph N/A   Clear
3:15 PM 68.5 °F - 39.7 °F 35% 29.84 in 10.0 mi South 18.4 mph 24.2 mph N/A   Clear
3:35 PM 68.0 °F - 41.2 °F 38% 29.84 in 10.0 mi South 13.8 mph 20.7 mph N/A   Clear
3:55 PM 67.3 °F - 41.5 °F 39% 29.84 in 10.0 mi South 17.3 mph 21.9 mph N/A   Clear
4:15 PM 67.6 °F - 43.0 °F 41% 29.84 in 10.0 mi South 12.7 mph 19.6 mph N/A   Clear
4:35 PM 67.1 °F - 43.3 °F 42% 29.83 in 10.0 mi South 12.7 mph 17.3 mph N/A   Clear
4:55 PM 67.1 °F - 43.7 °F 43% 29.83 in 10.0 mi South 11.5 mph 21.9 mph N/A   Clear
5:15 PM 66.2 °F - 44.1 °F 45% 29.83 in 10.0 mi South 11.5 mph - N/A   Clear
5:35 PM 65.8 °F - 44.4 °F 46% 29.83 in 10.0 mi South 12.7 mph 18.4 mph N/A   Mostly Cloudy
5:55 PM 65.3 °F - 44.8 °F 47% 29.83 in 10.0 mi South 9.2 mph - N/A   Overcast
6:15 PM 64.9 °F - 45.3 °F 49% 29.83 in 10.0 mi South 6.9 mph - N/A   Overcast
6:35 PM 63.7 °F - 43.0 °F 47% 29.86 in 10.0 mi West 5.8 mph - N/A   Overcast
6:55 PM 63.0 °F - 42.8 °F 48% 29.85 in 10.0 mi West 6.9 mph - N/A   Overcast
7:15 PM 57.9 °F - 44.4 °F 61% 29.88 in 10.0 mi NW 23.0 mph 31.1 mph N/A   Overcast
7:35 PM 55.2 °F - 42.6 °F 63% 29.92 in 10.0 mi NW 15.0 mph 26.5 mph N/A   Overcast
7:55 PM 54.0 °F - 42.4 °F 65% 29.93 in 10.0 mi WNW 17.3 mph 23.0 mph N/A   Overcast
8:15 PM 50.0 °F - 46.0 °F 86% 29.94 in 7.0 mi WNW 15.0 mph - 0.01 in Rain Rain
8:35 PM 48.7 °F - 45.7 °F 89% 29.94 in 7.0 mi NW 12.7 mph 21.9 mph 0.04 in Rain Rain
8:55 PM 48.2 °F - 45.0 °F 89% 29.95 in 7.0 mi NW 13.8 mph 18.4 mph 0.07 in Rain Rain
9:15 PM 47.7 °F - 45.5 °F 92% 29.95 in 7.0 mi WNW 8.1 mph - 0.02 in Rain Rain
9:35 PM 47.3 °F - 45.1 °F 92% 29.96 in 10.0 mi NW 6.9 mph - 0.05 in Rain Rain
9:55 PM 47.3 °F - 45.1 °F 92% 29.96 in 10.0 mi WNW 5.8 mph - 0.06 in Rain Light Rain
10:15 PM 47.3 °F - 45.5 °F 93% 29.97 in 7.0 mi WNW 3.5 mph - 0.01 in Rain Rain
10:35 PM 47.3 °F - 45.5 °F 93% 29.97 in 10.0 mi Calm Calm - 0.03 in Rain Light Rain
10:55 PM 47.5 °F - 45.7 °F 93% 29.97 in 10.0 mi WSW 3.5 mph - 0.04 in Rain Light Rain
11:15 PM 47.3 °F - 45.7 °F 94% 29.97 in 10.0 mi SSW 3.5 mph - N/A Rain Light Rain
11:35 PM 47.3 °F - 45.5 °F 93% 29.98 in 10.0 mi SW 3.5 mph - N/A   Overcast
11:55 PM 47.5 °F - 45.9 °F 94% 29.98 in 10.0 mi SW 3.5 mph - N/A   Overcast